Roda de Ter - l'Esquerda





Hora UTC 13:30
Temperatura 17.8 ºC
Humitat 89.0 %
Pressió 1013.9 hPa
Pluja 4.2 mm
Velocitat vent 3.2 km/h
Direcció vent ENE

Dades diàries 2019-09-21



Hora UTC (hivern +1h; estiu +2h)
Temperatura (ºC) Humitat (%) Pressió (hPa) Velocitat vent (km/h) Precipitació (mm)
Hora UTC Aire Humitat Pressió Vel. Dir. Vel. Max Dir. Intent. màx 5 min.
00:05 16.8 89.0 1017.8 1.6 E 1.6 0.0
00:10 16.8 89.0 1017.8 1.6 E 3.2 0.0
00:15 16.7 89.0 1017.6 1.6 E 3.2 0.0
00:20 16.7 89.0 1017.6 0.0 E 1.6 0.0
00:25 16.5 90.0 1017.6 0.0 E 3.2 0.0
00:30 16.4 90.0 1017.5 1.6 E 3.2 0.0
00:35 16.4 90.0 1017.3 1.6 E 3.2 0.0
00:40 16.4 91.0 1017.2 1.6 E 6.4 0.0
00:45 16.5 90.0 1017.2 0.0 ENE 4.8 0.0
00:50 16.3 90.0 1017.3 0.0 ENE 4.8 0.0
00:55 16.3 91.0 1017.2 0.0 ENE 1.6 0.0
01:00 16.2 91.0 1017.2 0.0 ENE 3.2 0.0
01:05 16.2 91.0 1017.2 0.0 ENE 3.2 0.0
01:10 16.2 91.0 1017.1 1.6 ENE 3.2 0.0
01:15 16.3 91.0 1016.9 3.2 ENE 6.4 0.0
01:20 16.5 91.0 1017.0 3.2 ENE 6.4 0.0
01:25 16.6 91.0 1017.0 6.4 ENE 8.0 0.0
01:30 16.8 91.0 1016.9 3.2 SE 11.3 0.0
01:35 17.1 90.0 1016.9 0.0 E 9.7 0.0
01:40 17.1 89.0 1017.0 0.0 E 9.7 0.0
01:45 17.0 88.0 1017.0 4.8 SE 8.0 0.0
01:50 17.1 88.0 1017.3 1.6 E 6.4 0.0
01:55 17.2 88.0 1017.4 4.8 NE 6.4 0.0
02:00 17.2 87.0 1017.3 1.6 E 9.7 0.0
02:05 17.2 86.0 1017.4 3.2 E 9.7 0.0
02:10 17.1 87.0 1017.3 4.8 E 6.4 0.0
02:15 17.1 87.0 1017.3 3.2 ENE 8.0 0.0
02:20 17.1 87.0 1017.4 3.2 E 6.4 0.0
02:25 17.1 87.0 1017.3 4.8 E 6.4 0.0
02:30 17.2 87.0 1017.2 3.2 ENE 9.7 0.0
02:35 17.3 87.0 1017.1 3.2 E 9.7 0.0
02:40 17.3 86.0 1017.2 0.0 ENE 9.7 0.0
02:45 17.2 86.0 1017.3 0.0 ENE 6.4 0.0
02:50 17.2 87.0 1017.2 0.0 ENE 3.2 0.0
02:55 16.9 87.0 1017.2 4.8 NNE 4.8 0.0
03:00 16.7 88.0 1017.0 3.2 N 9.7 0.0
03:05 16.7 88.0 1017.1 1.6 N 9.7 0.0
03:10 16.6 89.0 1017.0 1.6 NNE 4.8 0.0
03:15 16.5 89.0 1016.9 3.2 NNW 4.8 0.0
03:20 16.4 89.0 1016.7 1.6 NNW 6.4 0.0
03:25 16.4 89.0 1016.4 3.2 NW 6.4 0.0
03:30 16.3 90.0 1016.5 3.2 NNW 4.8 0.0
03:35 16.3 90.0 1016.3 1.6 N 6.4 0.0
03:40 16.3 90.0 1016.5 3.2 ENE 6.4 0.0
03:45 16.3 90.0 1016.5 0.0 ENE 3.2 0.0
03:50 16.3 90.0 1016.5 0.0 ENE 3.2 0.0
03:55 16.2 90.0 1016.3 1.6 ENE 3.2 0.0
04:00 16.2 90.0 1016.2 1.6 ENE 3.2 0.0
04:05 16.1 91.0 1016.2 0.0 ENE 3.2 0.0
04:10 16.1 91.0 1016.2 0.0 ENE 1.6 0.0
04:15 16.1 91.0 1016.2 0.0 ENE 3.2 0.0
04:20 16.0 91.0 1016.0 0.0 ENE 3.2 0.0
04:25 15.9 91.0 1015.8 1.6 ENE 1.6 0.0
04:30 15.9 91.0 1015.8 0.0 ENE 1.6 0.0
04:35 15.9 91.0 1015.6 1.6 ENE 3.2 0.0
04:40 15.9 90.0 1015.6 1.6 ENE 3.2 0.0
04:45 15.9 90.0 1015.6 0.0 ENE 3.2 0.0
04:50 15.9 90.0 1015.5 0.0 ENE 3.2 0.0
04:55 15.9 90.0 1015.4 0.0 ENE 3.2 0.0
05:00 15.9 89.0 1015.3 1.6 ENE 1.6 0.0
05:05 15.9 90.0 1015.4 0.0 ENE 3.2 0.0
05:10 15.8 90.0 1015.2 1.6 ENE 3.2 0.0
05:15 15.7 90.0 1015.4 0.0 ENE 1.6 0.0
05:20 15.7 91.0 1015.5 1.6 ENE 3.2 0.0
05:25 15.8 91.0 1015.7 3.2 E 4.8 0.0
05:30 15.8 91.0 1015.8 1.6 E 4.8 0.0
05:35 15.9 91.0 1015.7 1.6 E 3.2 0.0
05:40 15.9 91.0 1015.6 0.0 E 3.2 0.0
05:45 15.9 91.0 1015.4 1.6 ENE 4.8 0.0
05:50 15.9 91.0 1015.2 3.2 ENE 4.8 0.0
05:55 15.8 91.0 1015.2 0.0 ENE 4.8 0.0
06:00 15.8 91.0 1015.2 1.6 ENE 3.2 0.0
06:05 15.9 91.0 1015.0 0.0 ENE 3.2 0.0
06:10 16.0 91.0 1015.2 1.6 ENE 3.2 0.0
06:15 16.1 91.0 1015.2 3.2 W 4.8 0.0
06:20 16.1 91.0 1015.4 0.0 W 4.8 0.0
06:25 16.1 91.0 1015.5 1.6 W 4.8 0.0
06:30 16.1 91.0 1015.4 1.6 W 4.8 0.0
06:35 16.2 91.0 1015.4 1.6 W 3.2 0.0
06:40 16.3 91.0 1015.4 1.6 W 3.2 0.0
06:45 16.4 91.0 1015.4 1.6 S 3.2 0.0
06:50 16.5 90.0 1015.4 0.0 S 3.2 0.0
06:55 16.6 90.0 1015.3 0.0 S 3.2 0.0
07:00 16.7 90.0 1015.2 1.6 S 3.2 0.0
07:05 16.7 90.0 1015.4 0.0 S 3.2 0.0
07:10 16.8 89.0 1015.2 1.6 S 3.2 0.0
07:15 16.9 89.0 1015.4 0.0 S 3.2 0.0
07:20 16.8 89.0 1015.6 1.6 S 3.2 0.0
07:25 16.8 89.0 1015.6 0.0 S 3.2 0.0
07:30 16.8 89.0 1015.7 0.0 S 3.2 0.0
07:35 16.8 89.0 1015.6 0.0 S 3.2 0.0
07:40 16.8 90.0 1015.7 3.2 S 4.8 0.0
07:45 16.8 90.0 1015.7 6.4 S 6.4 0.0
07:50 16.7 89.0 1015.5 0.0 S 4.8 0.0
07:55 16.7 90.0 1015.4 3.2 S 3.2 0.2
08:00 16.8 90.0 1015.6 1.6 ESE 4.8 0.0
08:05 16.8 90.0 1015.7 0.0 SE 4.8 0.2
08:10 16.7 90.0 1015.8 1.6 SE 4.8 0.0
08:15 16.7 90.0 1015.6 1.6 E 3.2 0.0
08:20 16.7 91.0 1015.4 0.0 E 3.2 0.2
08:25 16.6 91.0 1015.7 3.2 W 6.4 0.0
08:30 16.6 91.0 1015.6 1.6 ESE 6.4 0.0
08:35 16.7 92.0 1014.9 4.8 E 6.4 0.6
08:40 16.8 92.0 1014.9 3.2 E 8.0 0.0
08:45 16.8 92.0 1014.8 3.2 E 8.0 0.2
08:50 17.0 92.0 1014.5 1.6 E 8.0 0.0
08:55 17.1 92.0 1014.3 4.8 SE 8.0 0.0
09:00 17.3 92.0 1014.4 12.9 E 20.9 0.0
09:05 17.7 92.0 1014.5 4.8 ESE 20.9 0.0
09:10 17.9 91.0 1014.7 1.6 S 12.9 0.0
09:15 18.0 90.0 1015.1 4.8 W 11.3 0.0
09:20 17.9 90.0 1015.4 4.8 SW 11.3 0.0
09:25 17.6 90.0 1015.1 4.8 WSW 12.9 0.0
09:30 17.4 91.0 1015.0 1.6 WSW 11.3 0.0
09:35 17.3 91.0 1015.1 0.0 SW 6.4 0.0
09:40 17.5 91.0 1015.2 1.6 SW 3.2 0.0
09:45 17.7 91.0 1015.3 3.2 WSW 6.4 0.0
09:50 18.0 92.0 1015.4 1.6 W 6.4 0.0
09:55 18.0 92.0 1015.6 0.0 W 6.4 0.0
10:00 18.0 91.0 1016.1 0.0 SW 4.8 0.0
10:05 18.1 91.0 1016.2 3.2 E 4.8 0.0
10:10 18.1 90.0 1016.1 3.2 E 14.5 0.0
10:15 18.2 90.0 1015.8 6.4 NE 9.7 0.0
10:20 18.2 90.0 1015.7 4.8 ENE 6.4 0.0
10:25 18.1 90.0 1015.8 0.0 E 12.9 0.0
10:30 18.0 90.0 1015.8 3.2 ENE 12.9 0.0
10:35 17.8 90.0 1015.5 4.8 NE 9.7 0.2
10:40 17.6 90.0 1016.0 9.7 SE 17.7 0.4
10:45 17.3 90.0 1015.7 3.2 ESE 17.7 0.6
10:50 17.3 90.0 1015.3 4.8 ENE 14.5 0.4
10:55 17.2 90.0 1014.8 4.8 E 14.5 0.4
11:00 17.2 90.0 1015.2 4.8 ESE 14.5 0.2
11:05 17.3 90.0 1014.9 3.2 E 12.9 0.0
11:10 17.5 91.0 1014.7 6.4 E 9.7 0.0
11:15 17.4 91.0 1014.5 3.2 E 12.9 0.0
11:20 17.6 90.0 1014.0 11.3 ENE 12.9 0.0
11:25 17.7 90.0 1013.6 8.0 E 17.7 0.0
11:30 17.8 91.0 1013.6 3.2 E 17.7 0.0
11:35 17.9 89.0 1014.0 3.2 ESE 12.9 0.0
11:40 18.2 89.0 1014.1 0.0 ENE 12.9 0.0
11:45 18.3 88.0 1014.3 1.6 ENE 3.2 0.0
11:50 18.6 90.0 1014.5 1.6 ENE 3.2 0.0
11:55 18.3 88.0 1014.5 3.2 SSW 6.4 0.0
12:00 18.4 88.0 1014.3 0.0 SSW 6.4 0.0
12:05 18.4 88.0 1014.3 4.8 E 4.8 0.0
12:10 18.3 88.0 1014.3 1.6 E 6.4 0.0
12:15 18.2 88.0 1014.2 3.2 ESE 9.7 0.0
12:20 18.1 88.0 1013.9 1.6 E 9.7 0.0
12:25 18.0 88.0 1013.9 3.2 NE 9.7 0.0
12:30 18.0 88.0 1013.9 1.6 ENE 8.0 0.0
12:35 17.9 88.0 1014.2 0.0 E 8.0 0.0
12:40 17.9 89.0 1014.5 4.8 SE 9.7 0.2
12:45 17.9 89.0 1015.0 9.7 S 11.3 0.0
12:50 17.8 88.0 1014.7 4.8 ENE 12.9 0.2
12:55 17.8 89.0 1014.3 0.0 ESE 11.3 0.0
13:00 17.8 89.0 1014.5 1.6 SW 11.3 0.0
13:05 17.9 90.0 1014.5 1.6 SW 4.8 0.0
13:10 17.8 89.0 1014.6 0.0 ESE 6.4 0.0
13:15 17.9 89.0 1014.5 0.0 ESE 6.4 0.0
13:20 17.9 88.0 1014.4 1.6 ESE 1.6 0.0
13:25 17.8 88.0 1014.1 0.0 ESE 1.6 0.2
13:30 17.8 89.0 1013.9 3.2 ENE 3.2 0.0
Màxima 18.6 92.0 1017.8 12.9 E 20.9 0.6
Mínima 15.7 86.0 1013.6
Total 4.2